[[{"header":{"parameterUnit":"m.s-1","parameterCategory":1,"la1":30.2991,"la2":30.254,"lo1":-89.0895,"lo2":-89.0444,"dy":0.0017,"dx":0.0017,"nx":28,"ny":28,"refTime":"2023-08-01T03:00:00:Z","depth":0,"parameterNumber":2,"parameterNumberName":"U-component_of_WINDS"},"data":[0,0,0,0,0,0,0,0,0,0,0,0,0,0,0,0,0,0,0,0,0,0,0,0,0,0,0,0,0,0,0,0,0,0,0,0,0,0,0,0,0,0,0,0,0,0,0,0,0,0,0,0,0,0,0,0,0,0,0.2312,0.2312,0,0.2316,0.2316,0.2316,0.2341,0.2341,0.2342,0.2342,0.2345,0.2344,0.2344,0,0,0,0,0,0,0,0,0,0,0,0,0,0.232,0.232,0.2312,0.2312,0.2312,0.2316,0.2316,0.2316,0.2341,0.2341,0.2342,0.2343,0.2345,0.2344,0.2344,0,0,0,0,0,0,0,0,0,0,0,0,0,0.232,0.232,0.2312,0.2324,0.2326,0.2316,0.2316,0.2316,0.234,0.2341,0.2342,0.2343,0.2345,0.2344,0.2343,0.2321,0,0,0.2341,0.2341,0,0,0,0,0,0,0,0,0.232,0.2319,0.2322,0.2324,0.2325,0.2329,0.232,0.2318,0.234,0.2335,0.2342,0.2343,0.2338,0.2338,0.2337,0.2321,0.2322,0.2341,0.2341,0.234,0.234,0,0,0,0,0,0,0,0.232,0.2319,0.2313,0.2322,0.2324,0.2329,0.233,0.232,0.2331,0.2335,0.2337,0.2337,0.2339,0.2338,0.2337,0.2322,0.2341,0.2341,0.234,0.234,0.2285,0.2284,0,0,0,0,0,0,0.2318,0.2319,0.2313,0.2314,0.2325,0.2328,0.2329,0.2327,0.2332,0.2333,0.2337,0.2338,0.2339,0.2338,0.2338,0.231,0.234,0.234,0.2339,0.2286,0.2285,0.2284,0,0,0,0,0,0,0.2319,0.2318,0.2313,0.2317,0.2317,0.2327,0.2324,0.2326,0.2325,0.2333,0.2335,0.2333,0.2339,0.2339,0.2325,0.231,0.2339,0.2339,0.2287,0.2286,0.2284,0.2256,0,0,0,0,0,0,0.2319,0.2318,0.231,0.2317,0.2316,0.2301,0.2323,0.2326,0.2324,0.2326,0.233,0.2331,0.234,0.2326,0.2324,0.231,0.2338,0.2288,0.2286,0.2285,0.2258,0.2253,0.225,0,0,0,0,0,0.2319,0.2302,0.231,0.2309,0.2308,0.23,0.23,0.2311,0.2323,0.2314,0.2319,0.2331,0.2313,0.2324,0.2322,0.2308,0.2289,0.2287,0.2285,0.226,0.2254,0.225,0,0,0,0,0,0,0.2293,0.2303,0.2312,0.2297,0.2298,0.2305,0.2295,0.2305,0.2302,0.2304,0.2317,0.2318,0.2301,0.2304,0.2316,0.2285,0.2303,0.23,0.2284,0.2279,0.2275,0.2274,0.2338,0,0,0,0,0,0.2286,0.2281,0.2289,0.2275,0.2275,0.2285,0.2282,0.229,0.2291,0.2291,0.2295,0.2295,0.2289,0.2284,0.2279,0.2259,0.2258,0.2248,0.2243,0.224,0.2237,0.2224,0.2218,0.2276,0.2276,0.2276,0,0,0.2271,0.2275,0.2271,0.227,0.2271,0.2264,0.2285,0.2276,0.227,0.229,0.2277,0.2279,0.228,0.2262,0.2254,0.2263,0.2221,0.2237,0.2234,0.2233,0.2221,0.2215,0.221,0.2275,0.2275,0.2275,0,0,0.2239,0.2243,0.223,0.2231,0.2233,0.224,0.2237,0.2242,0.2244,0.2231,0.2245,0.2238,0.2227,0.2226,0.2224,0.219,0.22,0.2188,0.2165,0.2152,0.2148,0.2144,0.2129,0.2124,0.2185,0.2185,0.2185,0,0.2219,0.2209,0.2222,0.2212,0.221,0.2228,0.2214,0.2214,0.2214,0.2212,0.2222,0.2208,0.221,0.2191,0.2182,0.2181,0.2176,0.2187,0.2147,0.2144,0.214,0.2126,0.2121,0.2183,0.2184,0.2184,0.2184,0,0.2184,0.2177,0.2166,0.2166,0.2163,0.2151,0.2161,0.2156,0.2164,0.2168,0.2154,0.2156,0.2151,0.2147,0.2155,0.2128,0.2133,0.2146,0.2163,0.2132,0.212,0.2115,0.2181,0.2182,0.2182,0.2183,0,0,0.2136,0.2142,0.2138,0.2137,0.214,0.2134,0.2122,0.2117,0.2112,0.2111,0.21,0.209,0.21,0.2098,0.2106,0.2095,0.2064,0.2108,0.2108,0.2098,0.2032,0.2021,0.2015,0.2071,0.2071,0.207,0.2031,0,0.2103,0.2084,0.2095,0.2074,0.2066,0.2082,0.2071,0.2071,0.2075,0.2067,0.2071,0.2063,0.2079,0.2077,0.2067,0.207,0.2051,0.2073,0.2059,0.2058,0.2057,0.2009,0.1999,0.1962,0.2026,0.2026,0.2025,0,0.2063,0.206,0.2038,0.2041,0.2038,0.2029,0.2024,0.2017,0.2017,0.202,0.2017,0.2026,0.2013,0.2031,0.2012,0.2027,0.2022,0.2022,0.2021,0.2019,0.2039,0.2003,0.1951,0.1944,0.2018,0.2018,0.2019,0,0.2027,0.2018,0.2003,0.2003,0.2006,0.1998,0.1999,0.1999,0.1995,0.1991,0.1988,0.1982,0.1978,0.1972,0.1979,0.1992,0.1957,0.1977,0.1958,0.1957,0.1949,0.1949,0.1892,0.1948,0.1949,0.1949,0.1949,0,0.1989,0.1974,0.1987,0.1978,0.1961,0.1973,0.1956,0.1958,0.1958,0.1948,0.1962,0.1952,0.1963,0.1953,0.1959,0.194,0.1939,0.194,0.1941,0.1937,0.1937,0.1933,0.1935,0.1947,0.1948,0.1948,0.1948,0,0.1946,0.1954,0.1939,0.1943,0.1944,0.1931,0.1934,0.1924,0.1929,0.1916,0.1913,0.192,0.1909,0.1916,0.1906,0.1909,0.1884,0.189,0.1884,0.1885,0.1865,0.1866,0.1802,0.1794,0.1857,0.1857,0.1856,0,0.192,0.1909,0.1912,0.1907,0.1907,0.1898,0.1894,0.1904,0.1899,0.1896,0.1886,0.1877,0.187,0.1852,0.1854,0.1846,0.185,0.1828,0.1849,0.1845,0.1847,0.1847,0.1844,0.1824,0.1823,0.1822,0.1822,0,0.1873,0.1877,0.1871,0.1865,0.1859,0.1855,0.1852,0.1847,0.1857,0.185,0.1839,0.1834,0.1823,0.1812,0.1804,0.1804,0.1813,0.1816,0.181,0.1806,0.1802,0.1801,0.1871,0.1817,0.1817,0.1818,0.1818,0.1818,0.1836,0.1826,0.1826,0.1818,0.1817,0.1813,0.1804,0.1807,0.1799,0.1791,0.1797,0.1784,0.1781,0.1772,0.1769,0.1758,0.1767,0.176,0.1757,0.1755,0.1751,0.1805,0.1757,0.1757,0.1757,0.1757,0.1758,0,0.1787,0.1788,0.178,0.1775,0.1768,0.178,0.1776,0.1769,0.1757,0.1755,0.1747,0.1734,0.1723,0.1725,0.1715,0.1705,0.1709,0.1702,0.1702,0.1701,0.1745,0.175,0.1699,0.1699,0.1699,0.1699,0.1699,0.1699,0.1761,0.1744,0.1748,0.173,0.173,0.1718,0.1715,0.1711,0.1708,0.1693,0.1685,0.1686,0.1684,0.1674,0.1664,0.1665,0.1659,0.165,0.1652,0.1693,0.1698,0.1704,0.1708,0.1649,0.1649,0.1608,0.1608,0.1608]},{"header":{"parameterUnit":"m.s-1","parameterCategory":1,"la1":30.2991,"la2":30.254,"lo1":-89.0895,"lo2":-89.0444,"dy":0.0017,"dx":0.0017,"nx":28,"ny":28,"refTime":"2023-08-01T03:00:00:Z","depth":0,"parameterNumber":3,"parameterNumberName":"V-component_of_WINDS"},"data":[0,0,0,0,0,0,0,0,0,0,0,0,0,0,0,0,0,0,0,0,0,0,0,0,0,0,0,0,0,0,0,0,0,0,0,0,0,0,0,0,0,0,0,0,0,0,0,0,0,0,0,0,0,0,0,0,0,0,3.4982,3.4982,0,3.4918,3.4918,3.4917,3.4854,3.4853,3.4852,3.4851,3.4779,3.4778,3.4777,0,0,0,0,0,0,0,0,0,0,0,0,0,3.5046,3.5045,3.4983,3.4982,3.4981,3.4919,3.4918,3.4917,3.4854,3.4853,3.4852,3.4851,3.478,3.4778,3.4777,0,0,0,0,0,0,0,0,0,0,0,0,0,3.5003,3.5045,3.4983,3.4942,3.4938,3.4919,3.4918,3.4916,3.4854,3.4853,3.4851,3.485,3.478,3.4779,3.4777,3.4791,0,0,3.4772,3.4771,0,0,0,0,0,0,0,0,3.5006,3.5001,3.4949,3.4945,3.494,3.4893,3.4913,3.4874,3.4854,3.4886,3.4851,3.485,3.4818,3.4813,3.4803,3.4787,3.4784,3.4771,3.477,3.477,3.4769,0,0,0,0,0,0,0,3.5009,3.5004,3.4957,3.4948,3.4943,3.4926,3.4918,3.4906,3.4859,3.4883,3.4878,3.4872,3.4815,3.4805,3.4801,3.4783,3.4771,3.477,3.4769,3.4768,3.4774,3.4775,0,0,0,0,0,0,3.5019,3.5006,3.4959,3.4955,3.4971,3.4925,3.4917,3.4909,3.4859,3.485,3.4873,3.4869,3.4809,3.4803,3.4798,3.481,3.477,3.4768,3.4767,3.4773,3.4774,3.4776,0,0,0,0,0,0,3.502,3.5015,3.4961,3.4979,3.4971,3.4926,3.4917,3.4908,3.4898,3.4852,3.4842,3.4871,3.4807,3.4801,3.4793,3.4806,3.4767,3.4766,3.4772,3.4773,3.4775,3.4834,0,0,0,0,0,0,3.5022,3.5016,3.5022,3.498,3.4971,3.4959,3.4918,3.4908,3.4896,3.4891,3.4848,3.484,3.4806,3.4796,3.4792,3.4803,3.4764,3.477,3.4772,3.4775,3.4831,3.4838,3.4844,0,0,0,0,0,3.5025,3.504,3.5022,3.5017,3.4977,3.496,3.4954,3.4917,3.4898,3.4902,3.4872,3.4841,3.4807,3.4796,3.479,3.4802,3.4769,3.4772,3.4774,3.4828,3.4836,3.4844,0,0,0,0,0,0,3.5082,3.5034,3.5014,3.5016,3.4993,3.495,3.4954,3.4928,3.4908,3.4903,3.4856,3.4847,3.4844,3.4823,3.4811,3.4812,3.4783,3.4785,3.4826,3.4834,3.484,3.4844,3.4763,0,0,0,0,0,3.5095,3.5087,3.5045,3.5051,3.504,3.5,3.4991,3.4965,3.4938,3.4927,3.4896,3.487,3.4853,3.4843,3.4825,3.4829,3.4817,3.4834,3.484,3.4846,3.4847,3.4846,3.4852,3.4785,3.4785,3.4785,0,0,3.5121,3.5094,3.5091,3.5061,3.504,3.5031,3.4991,3.4983,3.4975,3.4925,3.4916,3.4893,3.486,3.4859,3.4856,3.484,3.4863,3.4849,3.4854,3.4852,3.4849,3.4855,3.4861,3.4786,3.4786,3.4786,0,0,3.5164,3.5144,3.5146,3.5127,3.5096,3.5069,3.507,3.5031,3.5015,3.5006,3.4967,3.4957,3.4929,3.4907,3.4893,3.493,3.4899,3.4925,3.4958,3.4957,3.4962,3.4967,3.4978,3.4983,3.4927,3.4927,3.4927,0,3.52,3.5186,3.515,3.5145,3.5132,3.5089,3.509,3.5072,3.5037,3.5028,3.5012,3.4977,3.4952,3.4943,3.4953,3.4943,3.4941,3.4928,3.4965,3.4969,3.4973,3.4982,3.4987,3.493,3.493,3.493,3.4929,0,3.5231,3.5222,3.5227,3.5196,3.5185,3.5182,3.5145,3.5137,3.5112,3.5087,3.5078,3.5047,3.5022,3.5018,3.4994,3.5006,3.4997,3.4974,3.4944,3.4983,3.4991,3.4995,3.4935,3.4934,3.4933,3.4932,0,0,3.5304,3.5255,3.5258,3.5243,3.5207,3.5199,3.5195,3.5172,3.5166,3.5143,3.5137,3.5116,3.5094,3.5078,3.505,3.5051,3.5079,3.5027,3.5025,3.5035,3.5089,3.5105,3.5111,3.5061,3.5061,3.5062,3.5091,0,3.5339,3.533,3.5298,3.5298,3.5288,3.5249,3.5245,3.5222,3.5198,3.5186,3.5159,3.5144,3.5118,3.5107,3.5106,3.5076,3.5089,3.5074,3.5051,3.5051,3.5058,3.5115,3.5132,3.5161,3.5095,3.5095,3.5096,0,3.5377,3.5359,3.5359,3.5324,3.5319,3.5316,3.5293,3.5282,3.5255,3.5238,3.5221,3.5191,3.5183,3.5157,3.5144,3.5134,3.5124,3.5108,3.5108,3.5102,3.5074,3.5108,3.517,3.5173,3.5101,3.51,3.51,0,3.5428,3.5404,3.5401,3.539,3.535,3.5348,3.5331,3.5303,3.5292,3.5271,3.5263,3.5242,3.5229,3.5212,3.5177,3.5162,3.5166,3.5138,3.515,3.515,3.5149,3.5149,3.5208,3.5148,3.5148,3.5148,3.5148,0,3.5468,3.5469,3.5423,3.5421,3.542,3.5384,3.5384,3.5362,3.5338,3.5329,3.5294,3.5286,3.5242,3.5228,3.5201,3.5193,3.5188,3.5172,3.5164,3.5173,3.5175,3.5163,3.5159,3.5149,3.5148,3.5148,3.5148,0,3.5523,3.5493,3.5486,3.545,3.5441,3.5442,3.541,3.5405,3.5381,3.537,3.5366,3.5327,3.5309,3.5274,3.5246,3.5227,3.5225,3.5212,3.5234,3.5229,3.5241,3.524,3.5292,3.5296,3.5236,3.5237,3.5237,0,3.555,3.555,3.5514,3.5507,3.5492,3.548,3.5469,3.5434,3.5423,3.5393,3.5392,3.5372,3.5354,3.5328,3.5296,3.5274,3.526,3.528,3.5256,3.5265,3.5257,3.5256,3.5255,3.5284,3.5285,3.5285,3.5286,0,3.5599,3.5584,3.5571,3.5552,3.5541,3.5524,3.5505,3.55,3.546,3.545,3.5433,3.542,3.5393,3.5373,3.5347,3.5327,3.5299,3.5294,3.5295,3.5303,3.5315,3.5307,3.5246,3.5292,3.5292,3.5291,3.5291,3.529,3.5638,3.5636,3.5611,3.5597,3.558,3.5563,3.5557,3.5533,3.5519,3.5496,3.5476,3.546,3.5433,3.5395,3.5378,3.5364,3.535,3.5352,3.5352,3.5352,3.5356,3.5321,3.5359,3.5359,3.5358,3.5358,3.5358,0,3.5684,3.5667,3.5654,3.563,3.5619,3.5597,3.5575,3.5567,3.5554,3.5532,3.5516,3.5496,3.5478,3.5445,3.5423,3.5418,3.5404,3.5413,3.5411,3.5407,3.537,3.537,3.5424,3.5424,3.5424,3.5424,3.5424,3.5424,3.5706,3.5701,3.5684,3.567,3.5652,3.5638,3.5627,3.5611,3.5593,3.5574,3.5559,3.5539,3.5512,3.5488,3.5469,3.546,3.5452,3.5464,3.545,3.5416,3.541,3.5404,3.5404,3.5463,3.5463,3.5488,3.5488,3.5489]}]]